Location: ???????
(52.3000°N, 54.4667°E)
Time: 22:29:24
(UTC+00:00)

SL-16 R/B - Pass Details

Date: 24 January 2020
Orbit: 841 x 848 km, 71.0° (Epoch: 17 February)

Event Time Altitude Azimuth Distance (km) Brightness Sun altitude
Rises 15:39:56 0° 323° (NW) 3,420 5.9 -25.1°
Reaches altitude 10° 15:42:39 10° 314° (NW) 2,479 5.2 -25.5°
Maximum altitude 15:47:32 30° 254° (WSW) 1,463 4.0 -26.2°
Drops below altitude 10° 15:52:23 10° 195° (SSW) 2,460 4.7 -27.0°
Sets 15:55:04 0° 185° (S) 3,389 5.4 -27.4°
